Weather in Monclova

Mexico     26°54′47″N   101°25′09″W
temp.,
°C
wind,
m/s
gust,
m/s
humid.,
%
clouds,
%
prec.,
mm/h
press.,
hPa
HPBL,
m
10 may, mon
mon1001:00+28wnw34170 0.0 100846
04:00+27sw22345 0.0 100612
07:00+25nnw113756 0.0 100711
10:00+30ne212865 0.0 1009530
13:00+34ne42255 0.0 10081366
16:00+37ne43220 0.0 10042093
19:00+36ene762311 0.0 10021244
22:00+28s81341100 0.0 1006457
11 may, tue
tue1101:00+25ne5755100 0.7 1009382
04:00+23nnw3563100 0.4 1011500
07:00+22nnw2373100 1.0 1011500
10:00+24nnw116588 0.3 1012799
13:00+29ne224697 0.3 10091123
16:00+33ene433420 0.0 10051397
19:00+31sse554028 0.2 1006545
22:00+25nne446199 2.3 1010402
12 may, wed
wed1201:00+22ese3370100 3.2 1012296
04:00+23ne3370100 0.9 1011387
07:00+22nne4476100 0.9 1014641
10:00+21ne7777100 0.3 1018716
13:00+21ne5778100 0.8 1019794
16:00+19ne91092100 1.4 1019586
19:00+19nne6889100 2.7 1019614
22:00+19ne4889100 0.7 1021709
13 may, thu
thu1301:00+17nne71091100 1.8 1023586
04:00+16nne4790100 0.5 1022604
07:00+16n4690100 1.1 1024782
10:00+16nne3588100 0.8 1026613
13:00+16nne2384100 1.0 1025608
16:00+17ne2280100 0.1 1023762
19:00+18ne127381 0.1 1021715
22:00+19n2372100 0.0 1022487
14 may, fri
fri1401:00+19n1174100 0.0 1021346
04:00+19wnw117487 0.0 1020271
07:00+17n118250 0.0 102011
10:00+20nne117175 0.0 1020753
13:00+23ene1259100 0.2 1019998
16:00+26e1250100 0.1 10161627
19:00+27e5448100 0.2 10131191
22:00+24ese465720 0.0 1014475